Time,TemperatureF,DewpointF,PressureIn,WindDirection,WindDirectionDegrees,WindSpeedMPH,WindSpeedGustMPH,Humidity,HourlyPrecipIn,Conditions,Clouds,dailyrainin,SoftwareType,DateUTC
2013-01-26 00:03:00,32.5,25.8,27.94,East,90,1.2,1.6,76,0.00,,,0.00,WSDL version 420,2013-01-26 05:03:00,
2013-01-26 00:07:00,32.5,25.8,27.94,East,90,0.7,1.6,76,0.00,,,0.00,WSDL version 420,2013-01-26 05:07:00,
2013-01-26 00:12:00,32.6,25.9,27.94,East,90,1.7,2.9,76,0.00,,,0.00,WSDL version 420,2013-01-26 05:12:00,
2013-01-26 00:17:00,32.7,25.9,27.94,East,90,1.2,2.9,76,0.00,,,0.00,WSDL version 420,2013-01-26 05:17:00,
2013-01-26 00:22:00,32.5,25.8,27.94,East,90,1.3,2.2,76,0.00,,,0.00,WSDL version 420,2013-01-26 05:22:00,
2013-01-26 00:27:00,32.7,25.9,27.94,East,90,0.0,2.2,76,0.00,,,0.00,WSDL version 420,2013-01-26 05:27:00,
2013-01-26 00:32:00,32.7,26.0,27.94,East,90,0.9,2.2,76,0.00,,,0.00,WSDL version 420,2013-01-26 05:32:00,
2013-01-26 00:37:00,32.7,26.0,27.94,East,90,0.6,2.2,76,0.00,,,0.00,WSDL version 420,2013-01-26 05:37:00,
2013-01-26 00:42:00,32.8,26.1,27.94,East,90,0.6,2.5,76,0.00,,,0.00,WSDL version 420,2013-01-26 05:42:00,
2013-01-26 00:47:00,33.0,26.2,27.94,East,90,1.3,2.5,76,0.00,,,0.00,WSDL version 420,2013-01-26 05:47:00,
2013-01-26 00:52:00,33.1,26.3,27.94,East,90,1.5,2.7,76,0.00,,,0.00,WSDL version 420,2013-01-26 05:52:00,
2013-01-26 00:57:00,33.1,26.3,27.94,East,90,0.9,2.7,76,0.00,,,0.00,WSDL version 420,2013-01-26 05:57:00,
2013-01-26 01:02:00,33.1,26.7,27.94,East,90,0.0,2.2,77,0.00,,,0.00,WSDL version 420,2013-01-26 06:02:00,
2013-01-26 01:07:00,33.1,26.7,27.94,East,90,1.6,3.4,77,0.00,,,0.00,WSDL version 420,2013-01-26 06:07:00,
2013-01-26 01:12:00,33.2,26.5,27.94,East,90,2.5,3.4,76,0.00,,,0.00,WSDL version 420,2013-01-26 06:12:00,
2013-01-26 01:17:00,33.1,26.5,27.94,East,90,1.5,3.4,77,0.00,,,0.00,WSDL version 420,2013-01-26 06:17:00,
2013-01-26 01:22:00,33.1,26.7,27.94,East,90,0.4,2.7,77,0.00,,,0.00,WSDL version 420,2013-01-26 06:22:00,
2013-01-26 01:27:00,33.3,26.8,27.94,East,90,2.5,2.5,77,0.00,,,0.00,WSDL version 420,2013-01-26 06:27:00,
2013-01-26 01:32:00,33.3,26.8,27.94,East,90,1.0,2.5,77,0.00,,,0.00,WSDL version 420,2013-01-26 06:32:00,
2013-01-26 01:37:00,33.3,26.6,27.94,East,90,1.3,2.9,77,0.00,,,0.00,WSDL version 420,2013-01-26 06:37:00,
2013-01-26 01:42:00,33.3,26.6,27.94,East,90,1.2,2.9,76,0.00,,,0.00,WSDL version 420,2013-01-26 06:42:00,
2013-01-26 01:47:00,33.3,26.5,27.94,East,90,1.1,2.2,76,0.00,,,0.00,WSDL version 420,2013-01-26 06:47:00,
2013-01-26 01:52:00,33.3,26.5,27.94,East,90,0.7,2.9,76,0.00,,,0.00,WSDL version 420,2013-01-26 06:52:00,
2013-01-26 01:57:00,33.3,26.5,27.94,East,90,2.0,2.9,76,0.00,,,0.00,WSDL version 420,2013-01-26 06:57:00,
2013-01-26 02:02:00,33.4,26.7,27.94,East,90,1.1,2.9,76,0.00,,,0.00,WSDL version 420,2013-01-26 07:02:00,
2013-01-26 02:07:00,33.4,26.7,27.94,East,90,0.0,2.5,76,0.00,,,0.00,WSDL version 420,2013-01-26 07:07:00,
2013-01-26 02:12:00,33.4,26.7,27.94,East,90,1.1,2.5,76,0.00,,,0.00,WSDL version 420,2013-01-26 07:12:00,
2013-01-26 02:17:00,33.4,26.7,27.94,East,90,0.5,2.7,76,0.00,,,0.00,WSDL version 420,2013-01-26 07:17:00,
2013-01-26 02:22:00,33.4,26.7,27.94,East,90,0.4,2.7,76,0.00,,,0.00,WSDL version 420,2013-01-26 07:22:00,
2013-01-26 02:27:00,33.4,26.7,27.94,East,90,1.2,2.5,76,0.00,,,0.00,WSDL version 420,2013-01-26 07:27:00,
2013-01-26 02:32:00,33.4,26.7,27.94,East,90,1.8,2.5,76,0.00,,,0.00,WSDL version 420,2013-01-26 07:32:00,
2013-01-26 02:37:00,33.4,26.6,27.94,East,90,0.0,2.5,76,-99.99,,,-99.99,WSDL version 420,2013-01-26 07:37:00,
2013-01-26 02:42:00,33.6,26.9,27.94,East,90,1.0,2.7,76,0.00,,,0.00,WSDL version 420,2013-01-26 07:42:00,
2013-01-26 02:47:00,33.5,26.4,27.94,East,90,1.7,2.7,75,0.00,,,0.00,WSDL version 420,2013-01-26 07:47:00,
2013-01-26 02:52:00,33.4,26.4,27.94,East,90,1.0,2.5,75,0.00,,,0.00,WSDL version 420,2013-01-26 07:52:00,
2013-01-26 02:57:00,33.4,26.4,27.94,East,90,0.0,2.5,75,0.00,,,0.00,WSDL version 420,2013-01-26 07:57:00,
2013-01-26 03:02:00,33.4,26.2,27.94,East,90,1.7,3.6,74,0.00,,,0.00,WSDL version 420,2013-01-26 08:02:00,
2013-01-26 03:07:00,33.4,26.1,27.94,East,90,0.3,3.6,74,0.00,,,0.00,WSDL version 420,2013-01-26 08:07:00,
2013-01-26 03:12:00,33.4,26.1,27.94,East,90,1.6,2.5,74,0.00,,,0.00,WSDL version 420,2013-01-26 08:12:00,
2013-01-26 03:17:00,33.3,25.9,27.94,East,90,0.4,2.5,74,0.00,,,0.00,WSDL version 420,2013-01-26 08:17:00,
2013-01-26 03:22:00,33.4,26.1,27.94,East,90,0.0,1.3,74,0.00,,,0.00,WSDL version 420,2013-01-26 08:22:00,
2013-01-26 03:27:00,33.4,26.1,27.94,East,90,0.0,2.5,74,0.00,,,0.00,WSDL version 420,2013-01-26 08:27:00,
2013-01-26 03:32:00,33.4,26.1,27.94,East,90,0.0,2.5,74,0.00,,,0.00,WSDL version 420,2013-01-26 08:32:00,
2013-01-26 03:37:00,33.4,26.1,27.94,East,90,1.1,2.0,74,0.00,,,0.00,WSDL version 420,2013-01-26 08:37:00,
2013-01-26 03:42:00,33.4,26.0,27.94,East,90,0.6,2.0,74,0.00,,,0.00,WSDL version 420,2013-01-26 08:42:00,
2013-01-26 03:47:00,33.3,25.9,27.94,East,90,1.0,1.6,74,0.00,,,0.00,WSDL version 420,2013-01-26 08:47:00,
2013-01-26 03:52:00,33.3,25.7,27.94,East,90,0.9,1.6,73,0.00,,,0.00,WSDL version 420,2013-01-26 08:52:00,
2013-01-26 03:57:00,33.3,25.6,27.94,East,90,1.8,2.9,73,0.00,,,0.00,WSDL version 420,2013-01-26 08:57:00,
2013-01-26 04:02:00,33.3,25.6,27.94,East,90,1.2,2.9,73,0.00,,,0.00,WSDL version 420,2013-01-26 09:02:00,
2013-01-26 04:07:00,33.3,25.6,27.94,East,90,1.3,2.2,73,0.00,,,0.00,WSDL version 420,2013-01-26 09:07:00,
2013-01-26 04:12:00,33.3,25.6,27.94,East,90,1.3,2.5,73,0.00,,,0.00,WSDL version 420,2013-01-26 09:12:00,
2013-01-26 04:17:00,33.1,25.4,27.94,East,90,1.4,2.9,73,0.00,,,0.00,WSDL version 420,2013-01-26 09:17:00,
2013-01-26 04:22:00,33.1,25.4,27.94,East,90,1.3,2.9,73,0.00,,,0.00,WSDL version 420,2013-01-26 09:22:00,
2013-01-26 04:27:00,33.1,25.4,27.94,East,90,0.6,1.3,73,0.00,,,0.00,WSDL version 420,2013-01-26 09:27:00,
2013-01-26 04:32:00,33.1,25.4,27.94,East,90,1.2,2.5,73,0.00,,,0.00,WSDL version 420,2013-01-26 09:32:00,
2013-01-26 04:37:00,33.1,25.4,27.94,East,90,1.0,2.5,73,0.00,,,0.00,WSDL version 420,2013-01-26 09:37:00,
2013-01-26 04:42:00,33.1,25.4,27.94,East,90,1.5,2.5,73,0.00,,,0.00,WSDL version 420,2013-01-26 09:42:00,
2013-01-26 04:47:00,33.1,25.4,27.94,East,90,2.2,3.4,73,0.00,,,0.00,WSDL version 420,2013-01-26 09:47:00,
2013-01-26 04:52:00,33.1,25.2,27.94,East,90,1.6,3.4,72,0.00,,,0.00,WSDL version 420,2013-01-26 09:52:00,
2013-01-26 04:57:00,33.0,25.0,27.94,East,90,2.0,2.9,72,0.00,,,0.00,WSDL version 420,2013-01-26 09:57:00,
2013-01-26 05:02:00,32.8,24.6,27.96,East,90,2.0,3.4,71,0.00,,,0.00,WSDL version 420,2013-01-26 10:02:00,
2013-01-26 05:07:00,32.7,24.3,27.96,East,90,3.1,3.4,71,0.00,,,0.00,WSDL version 420,2013-01-26 10:07:00,
2013-01-26 05:12:00,32.5,24.0,27.96,East,90,3.2,3.4,70,0.00,,,0.00,WSDL version 420,2013-01-26 10:12:00,
2013-01-26 05:17:00,32.5,23.9,27.96,East,90,2.1,3.4,70,0.00,,,0.00,WSDL version 420,2013-01-26 10:17:00,
2013-01-26 05:22:00,32.5,23.6,27.96,East,90,3.4,3.4,69,0.00,,,0.00,WSDL version 420,2013-01-26 10:22:00,
2013-01-26 05:27:00,32.2,23.2,27.96,East,90,2.5,3.4,69,0.00,,,0.00,WSDL version 420,2013-01-26 10:27:00,
2013-01-26 05:32:00,32.2,23.2,27.96,East,90,1.3,2.9,69,0.00,,,0.00,WSDL version 420,2013-01-26 10:32:00,
2013-01-26 05:37:00,32.1,23.4,27.96,East,90,1.5,2.9,69,0.00,,,0.00,WSDL version 420,2013-01-26 10:37:00,
2013-01-26 05:42:00,32.1,23.7,27.96,East,90,1.3,2.2,69,0.00,,,0.00,WSDL version 420,2013-01-26 10:42:00,
2013-01-26 05:47:00,32.2,23.2,27.96,East,90,1.3,2.2,69,0.00,,,0.00,WSDL version 420,2013-01-26 10:47:00,
2013-01-26 05:52:00,32.2,23.2,27.96,East,90,1.4,2.0,69,0.00,,,0.00,WSDL version 420,2013-01-26 10:52:00,
2013-01-26 05:57:00,32.1,23.4,27.96,East,90,0.4,2.0,69,0.00,,,0.00,WSDL version 420,2013-01-26 10:57:00,
2013-01-26 06:02:00,32.2,23.2,27.96,East,90,1.4,1.6,69,0.00,,,0.00,WSDL version 420,2013-01-26 11:02:00,
2013-01-26 06:07:00,32.2,23.2,27.96,East,90,1.7,2.9,69,0.00,,,0.00,WSDL version 420,2013-01-26 11:07:00,
2013-01-26 06:12:00,32.1,23.7,27.96,East,90,0.6,2.9,69,0.00,,,0.00,WSDL version 420,2013-01-26 11:12:00,
2013-01-26 06:17:00,32.0,24.0,27.96,East,90,2.2,2.9,69,0.00,,,0.00,WSDL version 420,2013-01-26 11:17:00,
2013-01-26 06:22:00,32.1,23.6,27.96,East,90,0.9,2.7,69,0.00,,,0.00,WSDL version 420,2013-01-26 11:22:00,
2013-01-26 06:27:00,32.1,23.3,27.96,East,90,0.4,2.2,68,0.00,,,0.00,WSDL version 420,2013-01-26 11:27:00,
2013-01-26 06:32:00,31.9,23.7,27.96,East,90,1.8,2.5,68,0.00,,,0.00,WSDL version 420,2013-01-26 11:32:00,
2013-01-26 06:37:00,32.0,23.7,27.96,East,90,1.2,2.5,68,0.00,,,0.00,WSDL version 420,2013-01-26 11:37:00,
2013-01-26 06:42:00,32.0,23.7,27.96,East,90,0.6,2.0,68,0.00,,,0.00,WSDL version 420,2013-01-26 11:42:00,
2013-01-26 06:47:00,31.9,23.6,27.96,East,90,1.2,2.5,68,0.00,,,0.00,WSDL version 420,2013-01-26 11:47:00,
2013-01-26 06:52:00,31.9,23.8,27.96,East,90,0.4,2.7,68,0.00,,,0.00,WSDL version 420,2013-01-26 11:52:00,
2013-01-26 06:57:00,31.7,23.7,27.96,East,90,1.5,2.7,69,0.00,,,0.00,WSDL version 420,2013-01-26 11:57:00,
2013-01-26 07:02:00,31.6,23.6,27.99,East,90,1.5,2.9,69,0.00,,,0.00,WSDL version 420,2013-01-26 12:02:00,
2013-01-26 07:07:00,31.5,23.5,27.99,East,90,1.3,2.9,69,0.00,,,0.00,WSDL version 420,2013-01-26 12:07:00,
2013-01-26 07:12:00,31.5,23.5,27.99,East,90,1.6,2.2,69,0.00,,,0.00,WSDL version 420,2013-01-26 12:12:00,
2013-01-26 07:17:00,31.3,23.3,27.99,East,90,1.6,2.5,69,0.00,,,0.00,WSDL version 420,2013-01-26 12:17:00,
2013-01-26 07:22:00,31.3,23.4,27.99,East,90,0.6,2.5,69,0.00,,,0.00,WSDL version 420,2013-01-26 12:22:00,
2013-01-26 07:27:00,31.3,23.3,27.99,East,90,0.8,2.0,69,0.00,,,0.00,WSDL version 420,2013-01-26 12:27:00,
2013-01-26 07:32:00,31.3,23.3,27.99,East,90,2.0,2.9,69,0.00,,,0.00,WSDL version 420,2013-01-26 12:32:00,
2013-01-26 07:37:00,31.2,23.3,27.99,East,90,2.0,2.9,69,0.00,,,0.00,WSDL version 420,2013-01-26 12:37:00,
2013-01-26 07:42:00,31.2,23.2,27.99,East,90,1.9,2.7,69,0.00,,,0.00,WSDL version 420,2013-01-26 12:42:00,
2013-01-26 07:47:00,31.1,23.1,27.99,East,90,1.7,2.5,69,0.00,,,0.00,WSDL version 420,2013-01-26 12:47:00,
2013-01-26 07:52:00,31.2,23.2,27.99,East,90,1.1,2.5,69,0.00,,,0.00,WSDL version 420,2013-01-26 12:52:00,
2013-01-26 07:57:00,31.1,23.1,27.99,East,90,1.2,1.6,69,0.00,,,0.00,WSDL version 420,2013-01-26 12:57:00,
2013-01-26 08:02:00,31.1,23.1,27.99,East,90,0.4,1.6,69,0.00,,,0.00,WSDL version 420,2013-01-26 13:02:00,
2013-01-26 08:07:00,30.9,23.0,27.99,East,90,0.9,2.9,69,0.00,,,0.00,WSDL version 420,2013-01-26 13:07:00,
2013-01-26 08:12:00,30.9,23.0,27.99,East,90,0.0,2.9,69,0.00,,,0.00,WSDL version 420,2013-01-26 13:12:00,
2013-01-26 08:17:00,30.9,23.0,27.99,East,90,0.6,1.6,69,0.00,,,0.00,WSDL version 420,2013-01-26 13:17:00,
2013-01-26 08:22:00,31.0,23.1,27.99,East,90,0.5,1.6,69,0.00,,,0.00,WSDL version 420,2013-01-26 13:22:00,
2013-01-26 08:27:00,31.1,23.2,27.99,East,90,1.0,1.6,69,0.00,,,0.00,WSDL version 420,2013-01-26 13:27:00,
2013-01-26 08:32:00,31.3,23.3,28.02,East,90,0.0,1.1,69,0.00,,,0.00,WSDL version 420,2013-01-26 13:32:00,
2013-01-26 08:37:00,31.5,23.5,28.02,East,90,0.2,1.1,69,0.00,,,0.00,WSDL version 420,2013-01-26 13:37:00,
2013-01-26 08:42:00,31.5,23.6,28.02,East,90,0.8,2.2,69,0.00,,,0.00,WSDL version 420,2013-01-26 13:42:00,
2013-01-26 08:47:00,31.6,23.7,28.02,East,90,0.3,2.2,69,0.00,,,0.00,WSDL version 420,2013-01-26 13:47:00,
2013-01-26 08:52:00,31.6,23.6,28.02,East,90,0.7,1.6,69,0.00,,,0.00,WSDL version 420,2013-01-26 13:52:00,
2013-01-26 08:57:00,31.5,23.5,28.02,East,90,0.6,1.6,69,0.00,,,0.00,WSDL version 420,2013-01-26 13:57:00,
2013-01-26 09:02:00,31.6,23.6,28.02,East,90,0.4,1.6,69,0.00,,,0.00,WSDL version 420,2013-01-26 14:02:00,
2013-01-26 09:07:00,31.8,23.8,28.02,East,90,2.5,3.1,69,0.00,,,0.00,WSDL version 420,2013-01-26 14:07:00,
2013-01-26 09:12:00,32.4,23.7,28.02,East,90,1.0,3.1,70,0.00,,,0.00,WSDL version 420,2013-01-26 14:12:00,
2013-01-26 09:17:00,32.6,23.9,28.02,East,90,2.5,3.8,70,0.00,,,0.00,WSDL version 420,2013-01-26 14:17:00,
2013-01-26 09:22:00,32.7,23.9,28.02,East,90,1.2,3.8,70,0.00,,,0.00,WSDL version 420,2013-01-26 14:22:00,
2013-01-26 09:27:00,33.1,24.0,28.02,East,90,1.5,2.5,69,0.00,,,0.00,WSDL version 420,2013-01-26 14:27:00,
2013-01-26 09:32:00,33.1,24.0,28.02,East,90,1.8,2.9,69,-99.99,,,-99.99,WSDL version 420,2013-01-26 14:32:00,
2013-01-26 09:37:00,33.0,23.9,28.02,East,90,0.8,4.0,69,0.00,,,0.00,WSDL version 420,2013-01-26 14:37:00,
2013-01-26 09:42:00,33.0,24.0,28.02,East,90,0.0,4.0,69,0.00,,,0.00,WSDL version 420,2013-01-26 14:42:00,
2013-01-26 09:47:00,33.0,23.9,28.02,East,90,0.6,1.1,69,0.00,,,0.00,WSDL version 420,2013-01-26 14:47:00,
2013-01-26 09:52:00,32.7,23.7,28.02,East,90,1.0,2.0,69,0.00,,,0.00,WSDL version 420,2013-01-26 14:52:00,
2013-01-26 09:57:00,32.5,23.3,28.02,East,90,0.2,2.5,68,0.00,,,0.00,WSDL version 420,2013-01-26 14:57:00,
2013-01-26 10:07:00,32.8,23.7,28.02,East,90,1.1,1.1,69,0.00,,,0.00,WSDL version 420,2013-01-26 15:07:00,
2013-01-26 10:12:00,33.0,24.0,28.02,East,90,0.7,2.0,69,0.00,,,0.00,WSDL version 420,2013-01-26 15:12:00,
2013-01-26 10:17:00,33.0,23.9,28.02,East,90,1.4,2.0,69,0.00,,,0.00,WSDL version 420,2013-01-26 15:17:00,
2013-01-26 10:22:00,32.9,23.9,28.02,East,90,0.0,2.0,69,0.00,,,0.00,WSDL version 420,2013-01-26 15:22:00,
2013-01-26 10:27:00,33.3,24.2,28.02,East,90,0.6,1.6,69,0.00,,,0.00,WSDL version 420,2013-01-26 15:27:00,
2013-01-26 10:32:00,33.3,24.3,28.05,East,90,0.0,1.6,69,0.00,,,0.00,WSDL version 420,2013-01-26 15:32:00,
2013-01-26 10:37:00,33.3,24.3,28.05,East,90,0.9,2.0,69,0.00,,,0.00,WSDL version 420,2013-01-26 15:37:00,
2013-01-26 10:42:00,33.4,24.4,28.05,East,90,1.0,2.0,69,0.00,,,0.00,WSDL version 420,2013-01-26 15:42:00,
2013-01-26 10:47:00,33.3,23.9,28.05,East,90,1.6,2.5,68,0.00,,,0.00,WSDL version 420,2013-01-26 15:47:00,
2013-01-26 10:52:00,33.2,23.8,28.05,East,90,1.4,3.1,68,0.00,,,0.00,WSDL version 420,2013-01-26 15:52:00,
2013-01-26 10:57:00,33.0,23.4,28.05,East,90,2.0,3.1,67,0.00,,,0.00,WSDL version 420,2013-01-26 15:57:00,
2013-01-26 11:02:00,33.0,23.4,28.05,East,90,0.8,2.5,68,0.00,,,0.00,WSDL version 420,2013-01-26 16:02:00,
2013-01-26 11:07:00,33.1,23.7,28.05,East,90,1.3,2.0,68,0.00,,,0.00,WSDL version 420,2013-01-26 16:07:00,
2013-01-26 11:12:00,33.2,23.8,28.05,East,90,1.0,2.0,68,0.00,,,0.00,WSDL version 420,2013-01-26 16:12:00,
2013-01-26 11:22:00,33.4,24.0,28.05,East,90,1.5,2.9,68,0.00,,,0.00,WSDL version 420,2013-01-26 16:22:00,
2013-01-26 11:27:00,33.3,23.6,28.05,East,90,1.3,2.9,67,0.00,,,0.00,WSDL version 420,2013-01-26 16:27:00,
2013-01-26 11:32:00,33.6,24.1,28.05,East,90,1.4,2.0,68,0.00,,,0.00,WSDL version 420,2013-01-26 16:32:00,
2013-01-26 11:37:00,34.2,24.4,28.05,East,90,1.3,2.7,67,0.00,,,0.00,WSDL version 420,2013-01-26 16:37:00,
2013-01-26 11:42:00,34.3,24.5,28.05,East,90,2.2,2.7,67,0.00,,,0.00,WSDL version 420,2013-01-26 16:42:00,
2013-01-26 11:47:00,34.0,24.2,28.05,East,90,1.3,2.7,67,0.00,,,0.00,WSDL version 420,2013-01-26 16:47:00,
2013-01-26 11:52:00,34.3,24.5,28.05,East,90,0.6,2.0,67,0.00,,,0.00,WSDL version 420,2013-01-26 16:52:00,
2013-01-26 11:57:00,34.3,24.5,28.05,East,90,1.3,2.0,67,0.04,,,0.04,WSDL version 420,2013-01-26 16:57:00,
2013-01-26 12:02:00,34.4,24.6,28.05,East,90,1.9,2.7,67,0.04,,,0.04,WSDL version 420,2013-01-26 17:02:00,
2013-01-26 12:07:00,34.0,23.8,28.05,East,90,1.0,2.7,66,0.04,,,0.04,WSDL version 420,2013-01-26 17:07:00,
2013-01-26 12:12:00,34.0,23.8,28.05,East,90,0.9,2.5,66,0.04,,,0.04,WSDL version 420,2013-01-26 17:12:00,
2013-01-26 12:17:00,34.2,24.1,28.05,East,90,0.8,3.4,66,0.04,,,0.04,WSDL version 420,2013-01-26 17:17:00,
2013-01-26 12:22:00,34.0,23.9,28.05,East,90,1.0,3.4,66,0.04,,,0.04,WSDL version 420,2013-01-26 17:22:00,
2013-01-26 12:27:00,34.4,24.2,28.05,East,90,2.5,3.6,66,0.04,,,0.04,WSDL version 420,2013-01-26 17:27:00,
2013-01-26 12:32:00,34.5,24.3,28.02,East,90,2.6,3.6,66,0.04,,,0.04,WSDL version 420,2013-01-26 17:32:00,
2013-01-26 12:37:00,34.2,24.0,28.02,East,90,0.3,3.1,66,0.04,,,0.04,WSDL version 420,2013-01-26 17:37:00,
2013-01-26 12:42:00,34.3,24.2,28.02,East,90,0.6,2.5,66,0.04,,,0.04,WSDL version 420,2013-01-26 17:42:00,
2013-01-26 12:47:00,34.5,24.7,28.02,East,90,0.6,1.6,67,0.04,,,0.04,WSDL version 420,2013-01-26 17:47:00,
2013-01-26 12:52:00,34.7,24.9,28.02,East,90,0.4,2.0,67,0.04,,,0.04,WSDL version 420,2013-01-26 17:52:00,
2013-01-26 12:57:00,34.6,24.6,28.02,East,90,1.3,2.5,66,0.00,,,0.04,WSDL version 420,2013-01-26 17:57:00,
2013-01-26 13:02:00,34.5,24.3,28.02,East,90,0.7,2.5,66,0.00,,,0.04,WSDL version 420,2013-01-26 18:02:00,
2013-01-26 13:08:00,34.3,24.1,28.02,East,90,1.2,2.5,66,0.00,,,0.04,WSDL version 420,2013-01-26 18:08:00,
2013-01-26 13:17:00,33.9,23.5,28.02,East,90,0.4,2.2,65,0.00,,,0.04,WSDL version 420,2013-01-26 18:17:00,
2013-01-26 13:22:00,33.8,23.3,28.02,East,90,0.0,2.2,65,0.00,,,0.04,WSDL version 420,2013-01-26 18:22:00,
2013-01-26 13:27:00,33.8,23.5,28.02,East,90,0.0,1.3,66,0.00,,,0.04,WSDL version 420,2013-01-26 18:27:00,
2013-01-26 13:32:00,33.8,23.7,28.02,East,90,0.0,0.0,66,0.00,,,0.04,WSDL version 420,2013-01-26 18:32:00,
2013-01-26 13:37:00,33.8,23.7,28.02,East,90,0.0,0.0,66,0.00,,,0.04,WSDL version 420,2013-01-26 18:37:00,
2013-01-26 13:42:00,33.9,23.7,28.02,East,90,0.0,0.0,66,0.00,,,0.04,WSDL version 420,2013-01-26 18:42:00,
2013-01-26 13:47:00,34.0,23.8,28.02,East,90,0.0,0.0,66,0.00,,,0.04,WSDL version 420,2013-01-26 18:47:00,
2013-01-26 13:52:00,34.3,24.0,28.02,East,90,0.0,0.0,66,0.00,,,0.04,WSDL version 420,2013-01-26 18:52:00,
2013-01-26 13:57:00,34.8,24.6,28.02,East,90,0.0,0.0,66,0.00,,,0.04,WSDL version 420,2013-01-26 18:57:00,
2013-01-26 14:02:00,34.7,24.5,28.02,East,90,0.0,0.0,66,0.00,,,0.04,WSDL version 420,2013-01-26 19:02:00,
2013-01-26 14:07:00,34.6,24.4,28.02,East,90,0.0,0.0,66,0.00,,,0.04,WSDL version 420,2013-01-26 19:07:00,
2013-01-26 14:12:00,34.9,24.7,28.02,East,90,0.0,0.0,66,0.00,,,0.04,WSDL version 420,2013-01-26 19:12:00,
2013-01-26 14:17:00,34.9,24.7,28.02,East,90,0.0,0.0,66,0.00,,,0.04,WSDL version 420,2013-01-26 19:17:00,
2013-01-26 14:22:00,35.3,24.8,28.02,East,90,0.0,0.0,65,0.00,,,0.04,WSDL version 420,2013-01-26 19:22:00,
2013-01-26 14:27:00,35.8,25.2,28.02,East,90,1.6,2.5,65,0.00,,,0.04,WSDL version 420,2013-01-26 19:27:00,
2013-01-26 14:32:00,35.8,25.0,28.02,NNE,15,1.0,2.5,64,0.00,,,0.04,WSDL version 420,2013-01-26 19:32:00,
2013-01-26 14:37:00,35.7,24.9,28.02,NNW,332,1.8,2.7,65,0.00,,,0.04,WSDL version 420,2013-01-26 19:37:00,
2013-01-26 14:42:00,35.2,24.2,28.02,SW,225,1.6,2.7,64,0.00,,,0.04,WSDL version 420,2013-01-26 19:42:00,
2013-01-26 14:47:00,35.4,24.4,28.02,North,353,0.5,2.0,64,0.00,,,0.04,WSDL version 420,2013-01-26 19:47:00,
2013-01-26 14:52:00,35.5,24.5,28.02,SE,135,1.4,2.0,64,0.00,,,0.04,WSDL version 420,2013-01-26 19:52:00,
2013-01-26 14:57:00,35.3,24.3,28.02,SSW,203,1.3,1.6,64,0.00,,,0.04,WSDL version 420,2013-01-26 19:57:00,
2013-01-26 15:02:00,35.5,24.4,28.02,North,356,0.6,2.7,63,0.00,,,0.04,WSDL version 420,2013-01-26 20:02:00,
2013-01-26 15:07:00,35.6,24.6,28.02,WNW,293,0.9,2.7,64,0.00,,,0.04,WSDL version 420,2013-01-26 20:07:00,
2013-01-26 15:12:00,35.8,24.8,28.02,WNW,293,1.3,2.0,64,0.00,,,0.04,WSDL version 420,2013-01-26 20:12:00,
2013-01-26 15:17:00,35.5,24.5,28.02,WNW,285,0.4,2.0,64,0.00,,,0.04,WSDL version 420,2013-01-26 20:17:00,
2013-01-26 15:22:00,35.5,24.6,28.02,WNW,293,0.6,3.1,64,0.00,,,0.04,WSDL version 420,2013-01-26 20:22:00,
2013-01-26 15:27:00,35.4,24.5,28.02,WNW,293,1.0,3.1,64,0.00,,,0.04,WSDL version 420,2013-01-26 20:27:00,
2013-01-26 15:32:00,35.3,24.4,28.02,WNW,302,0.4,2.9,64,0.00,,,0.04,WSDL version 420,2013-01-26 20:32:00,
2013-01-26 15:37:00,35.4,24.5,28.02,North,353,0.4,2.0,64,0.00,,,0.04,WSDL version 420,2013-01-26 20:37:00,
2013-01-26 15:42:00,35.4,24.5,28.02,WSW,255,1.3,2.0,64,0.00,,,0.04,WSDL version 420,2013-01-26 20:42:00,
2013-01-26 15:47:00,35.2,24.3,28.05,West,281,0.8,2.0,64,0.00,,,0.04,WSDL version 420,2013-01-26 20:47:00,
2013-01-26 15:52:00,35.1,24.2,28.05,West,270,0.0,1.6,64,0.00,,,0.04,WSDL version 420,2013-01-26 20:52:00,
2013-01-26 15:57:00,35.1,24.2,28.05,SW,225,0.4,1.3,64,0.00,,,0.04,WSDL version 420,2013-01-26 20:57:00,
2013-01-26 16:02:00,35.0,24.0,28.05,West,259,0.9,2.2,64,0.00,,,0.04,WSDL version 420,2013-01-26 21:02:00,
2013-01-26 16:07:00,34.9,23.9,28.05,NNE,23,1.3,2.2,64,0.00,,,0.04,WSDL version 420,2013-01-26 21:07:00,
2013-01-26 16:12:00,34.9,23.9,28.05,NW,323,0.0,2.5,64,0.00,,,0.04,WSDL version 420,2013-01-26 21:12:00,
2013-01-26 16:17:00,34.9,23.9,28.05,WNW,293,0.0,2.5,64,-99.99,,,-99.99,WSDL version 420,2013-01-26 21:17:00,
2013-01-26 16:22:00,34.9,23.9,28.05,WNW,285,0.0,1.6,64,0.00,,,0.04,WSDL version 420,2013-01-26 21:22:00,
2013-01-26 16:27:00,34.8,23.9,28.05,WNW,293,0.0,1.6,64,0.00,,,0.04,WSDL version 420,2013-01-26 21:27:00,
2013-01-26 16:32:00,34.7,23.8,28.05,North,354,0.2,1.6,64,0.00,,,0.04,WSDL version 420,2013-01-26 21:32:00,
2013-01-26 16:37:00,34.5,23.6,28.05,NW,323,0.7,1.6,64,0.00,,,0.04,WSDL version 420,2013-01-26 21:37:00,
2013-01-26 16:42:00,34.3,23.4,28.05,West,263,1.0,1.6,64,0.00,,,0.04,WSDL version 420,2013-01-26 21:42:00,
2013-01-26 16:47:00,34.4,23.5,28.05,WNW,293,0.0,1.3,64,0.00,,,0.04,WSDL version 420,2013-01-26 21:47:00,
2013-01-26 16:52:00,34.5,23.9,28.05,NNW,338,0.0,0.9,65,0.00,,,0.04,WSDL version 420,2013-01-26 21:52:00,
2013-01-26 16:57:00,34.5,23.8,28.05,NW,323,0.9,1.3,64,0.00,,,0.04,WSDL version 420,2013-01-26 21:57:00,
2013-01-26 17:02:00,34.4,23.5,28.05,NNW,338,0.0,1.3,64,-99.99,,,-99.99,WSDL version 420,2013-01-26 22:02:00,
2013-01-26 17:07:00,34.5,23.6,28.05,WNW,293,0.0,0.0,64,0.00,,,0.04,WSDL version 420,2013-01-26 22:07:00,
2013-01-26 17:12:00,34.4,23.5,28.05,NW,308,0.0,0.0,64,-99.99,,,-99.99,WSDL version 420,2013-01-26 22:12:00,
2013-01-26 17:17:00,34.3,23.4,28.08,WNW,293,0.4,1.3,64,0.00,,,0.04,WSDL version 420,2013-01-26 22:17:00,
2013-01-26 17:22:00,34.3,23.4,28.08,NNW,338,0.0,1.3,64,0.00,,,0.04,WSDL version 420,2013-01-26 22:22:00,
2013-01-26 17:27:00,34.3,23.6,28.08,NW,315,0.3,1.3,65,0.00,,,0.04,WSDL version 420,2013-01-26 22:27:00,
2013-01-26 17:32:00,34.3,23.8,28.08,West,270,0.2,2.0,65,0.00,,,0.04,WSDL version 420,2013-01-26 22:32:00,
2013-01-26 17:37:00,34.3,23.8,28.08,NW,326,0.4,2.0,65,0.00,,,0.04,WSDL version 420,2013-01-26 22:37:00,
2013-01-26 17:42:00,34.3,23.8,28.08,West,270,0.6,2.5,65,0.00,,,0.04,WSDL version 420,2013-01-26 22:42:00,
2013-01-26 17:47:00,34.2,23.7,28.08,WSW,248,0.0,2.5,65,0.00,,,0.04,WSDL version 420,2013-01-26 22:47:00,
2013-01-26 17:52:00,34.2,23.6,28.08,ENE,60,0.5,2.2,65,0.00,,,0.04,WSDL version 420,2013-01-26 22:52:00,
2013-01-26 17:58:00,34.2,23.6,28.08,NNW,345,0.0,2.7,65,0.00,,,0.04,WSDL version 420,2013-01-26 22:58:00,
2013-01-26 18:07:00,34.1,23.6,28.08,WNW,293,0.0,2.0,65,-99.99,,,-99.99,WSDL version 420,2013-01-26 23:07:00,
2013-01-26 18:12:00,34.0,23.5,28.08,NE,53,1.4,2.5,65,0.00,,,0.04,WSDL version 420,2013-01-26 23:12:00,
2013-01-26 18:17:00,34.0,23.5,28.08,ENE,68,0.6,2.5,65,0.00,,,0.04,WSDL version 420,2013-01-26 23:17:00,
2013-01-26 18:22:00,34.0,23.5,28.08,NNE,23,0.0,1.1,65,0.00,,,0.04,WSDL version 420,2013-01-26 23:22:00,
2013-01-26 18:27:00,34.0,23.5,28.08,NW,308,0.0,1.1,65,0.00,,,0.04,WSDL version 420,2013-01-26 23:27:00,
2013-01-26 18:32:00,34.0,23.5,28.08,NW,321,0.0,0.0,65,0.00,,,0.04,WSDL version 420,2013-01-26 23:32:00,
2013-01-26 18:37:00,33.9,23.4,28.08,WNW,293,0.0,0.0,65,0.00,,,0.04,WSDL version 420,2013-01-26 23:37:00,
2013-01-26 18:42:00,33.8,23.3,28.08,NW,308,0.0,0.0,65,0.00,,,0.04,WSDL version 420,2013-01-26 23:42:00,
2013-01-26 18:47:00,33.9,23.3,28.08,NNE,23,0.0,0.9,65,0.00,,,0.04,WSDL version 420,2013-01-26 23:47:00,
2013-01-26 18:52:00,33.9,23.4,28.08,WNW,285,0.0,0.9,65,0.00,,,0.04,WSDL version 420,2013-01-26 23:52:00,
2013-01-26 18:57:00,33.9,23.4,28.08,North,11,0.7,1.3,65,0.00,,,0.04,WSDL version 420,2013-01-26 23:57:00,
2013-01-26 19:02:00,33.8,23.5,28.08,NW,326,0.3,1.3,66,-99.99,,,-99.99,WSDL version 420,2013-01-27 00:02:00,
2013-01-26 19:07:00,33.8,23.7,28.08,NNE,30,0.0,1.1,66,0.00,,,0.04,WSDL version 420,2013-01-27 00:07:00,
2013-01-26 19:12:00,34.0,23.8,28.08,NNW,338,0.0,1.1,66,0.00,,,0.04,WSDL version 420,2013-01-27 00:12:00,
2013-01-26 19:17:00,33.9,23.7,28.08,NW,315,0.0,0.0,66,-99.99,,,-99.99,WSDL version 420,2013-01-27 00:17:00,
2013-01-26 19:22:00,33.8,23.7,28.08,ENE,68,0.0,0.0,66,0.00,,,0.04,WSDL version 420,2013-01-27 00:22:00,
2013-01-26 19:27:00,33.8,23.7,28.08,North,11,0.4,0.9,66,0.00,,,0.04,WSDL version 420,2013-01-27 00:27:00,
2013-01-26 19:32:00,33.8,23.7,28.08,North,11,0.0,0.9,66,0.00,,,0.04,WSDL version 420,2013-01-27 00:32:00,
2013-01-26 19:39:00,33.7,23.6,28.08,NNE,23,0.0,0.0,66,0.00,,,0.04,WSDL version 420,2013-01-27 00:39:00,
2013-01-26 19:44:00,33.6,23.7,28.08,ENE,60,0.0,0.0,67,0.00,,,0.04,WSDL version 420,2013-01-27 00:44:00,
2013-01-26 19:49:00,33.6,23.8,28.11,ENE,68,1.4,2.0,67,0.00,,,0.04,WSDL version 420,2013-01-27 00:49:00,
2013-01-26 19:54:00,33.6,23.8,28.11,NE,45,0.0,2.0,67,0.00,,,0.04,WSDL version 420,2013-01-27 00:54:00,
2013-01-26 20:04:00,33.7,23.9,28.11,NNE,15,0.0,0.0,67,0.00,,,0.04,WSDL version 420,2013-01-27 01:04:00,
2013-01-26 20:09:00,33.6,23.8,28.11,NNE,23,0.0,0.0,67,0.00,,,0.04,WSDL version 420,2013-01-27 01:09:00,
2013-01-26 20:14:00,33.3,23.1,28.11,North,360,0.0,0.0,66,0.00,,,0.04,WSDL version 420,2013-01-27 01:14:00,
2013-01-26 20:24:00,33.1,22.6,28.11,East,79,0.6,1.1,65,0.00,,,0.04,WSDL version 420,2013-01-27 01:24:00,
2013-01-26 20:29:00,33.0,22.5,28.11,East,83,0.5,1.6,65,0.00,,,0.04,WSDL version 420,2013-01-27 01:29:00,
2013-01-26 20:34:00,33.1,22.6,28.11,NNE,23,0.0,1.6,65,0.00,,,0.04,WSDL version 420,2013-01-27 01:34:00,
2013-01-26 20:39:00,33.2,22.7,28.11,North,8,0.0,0.9,65,0.00,,,0.04,WSDL version 420,2013-01-27 01:39:00,
2013-01-26 20:44:00,33.1,22.5,28.11,NNE,23,0.0,1.1,64,0.00,,,0.04,WSDL version 420,2013-01-27 01:44:00,
2013-01-26 20:49:00,33.1,22.2,28.11,North,360,0.0,1.1,64,0.00,,,0.04,WSDL version 420,2013-01-27 01:49:00,
2013-01-26 20:54:00,33.1,22.2,28.11,NNE,23,0.0,0.0,64,0.00,,,0.04,WSDL version 420,2013-01-27 01:54:00,
2013-01-26 20:59:00,33.1,22.2,28.11,North,8,0.0,0.0,64,0.00,,,0.04,WSDL version 420,2013-01-27 01:59:00,
2013-01-26 21:04:00,33.1,22.2,28.11,NE,53,0.3,1.3,64,0.00,,,0.04,WSDL version 420,2013-01-27 02:04:00,
2013-01-26 21:09:00,33.1,22.2,28.11,NE,45,0.0,1.3,64,0.00,,,0.04,WSDL version 420,2013-01-27 02:09:00,
2013-01-26 21:14:00,33.0,22.1,28.11,NE,45,0.0,0.9,64,0.00,,,0.04,WSDL version 420,2013-01-27 02:14:00,
2013-01-26 21:19:00,32.9,22.1,28.11,NNW,345,0.0,0.0,64,0.00,,,0.04,WSDL version 420,2013-01-27 02:19:00,
2013-01-26 21:24:00,32.7,21.9,28.11,NNE,17,0.0,0.0,64,0.00,,,0.04,WSDL version 420,2013-01-27 02:24:00,
2013-01-26 21:29:00,32.8,22.0,28.11,NNW,345,0.0,0.0,64,0.00,,,0.04,WSDL version 420,2013-01-27 02:29:00,
2013-01-26 21:34:00,32.8,22.0,28.11,NW,315,0.0,0.0,64,0.00,,,0.04,WSDL version 420,2013-01-27 02:34:00,
2013-01-26 21:39:00,32.8,22.0,28.11,East,83,1.0,1.1,64,0.00,,,0.04,WSDL version 420,2013-01-27 02:39:00,
2013-01-26 21:44:00,32.8,22.0,28.11,North,353,0.0,1.6,64,0.00,,,0.04,WSDL version 420,2013-01-27 02:44:00,
2013-01-26 21:49:00,32.8,22.0,28.11,NE,34,0.0,1.6,64,0.00,,,0.04,WSDL version 420,2013-01-27 02:49:00,
2013-01-26 21:54:00,32.7,21.9,28.11,North,11,0.0,0.0,64,0.00,,,0.04,WSDL version 420,2013-01-27 02:54:00,
2013-01-26 22:04:00,32.7,21.9,28.11,North,8,0.0,1.1,64,0.00,,,0.04,WSDL version 420,2013-01-27 03:04:00,
2013-01-26 22:09:00,32.7,21.6,28.11,NW,323,0.0,0.0,63,0.00,,,0.04,WSDL version 420,2013-01-27 03:09:00,
2013-01-26 22:14:00,32.9,21.7,28.11,NE,38,0.0,0.0,63,0.00,,,0.04,WSDL version 420,2013-01-27 03:14:00,
2013-01-26 22:19:00,32.8,21.8,28.14,ENE,68,1.4,1.6,64,0.00,,,0.04,WSDL version 420,2013-01-27 03:19:00,
2013-01-26 22:24:00,32.7,21.9,28.14,NE,45,0.6,1.6,64,0.00,,,0.04,WSDL version 420,2013-01-27 03:24:00,
2013-01-26 22:29:00,32.7,21.9,28.14,NE,39,0.2,1.1,64,0.00,,,0.04,WSDL version 420,2013-01-27 03:29:00,
2013-01-26 22:34:00,32.5,21.4,28.14,NNE,23,0.0,1.1,63,0.00,,,0.04,WSDL version 420,2013-01-27 03:34:00,
2013-01-26 22:39:00,32.6,21.4,28.14,NNE,23,0.0,1.1,63,0.00,,,0.04,WSDL version 420,2013-01-27 03:39:00,
2013-01-26 22:44:00,32.5,21.4,28.14,WNW,293,0.0,0.0,63,0.00,,,0.04,WSDL version 420,2013-01-27 03:44:00,
2013-01-26 22:49:00,32.5,21.4,28.14,SW,233,0.0,0.0,63,0.00,,,0.04,WSDL version 420,2013-01-27 03:49:00,
2013-01-26 22:54:00,32.4,21.2,28.14,ENE,60,1.9,2.2,63,0.00,,,0.04,WSDL version 420,2013-01-27 03:54:00,
2013-01-26 22:59:00,32.2,21.1,28.14,North,353,0.0,2.2,63,0.00,,,0.04,WSDL version 420,2013-01-27 03:59:00,
2013-01-26 23:04:00,32.2,21.0,28.14,NE,38,0.0,1.6,63,0.00,,,0.04,WSDL version 420,2013-01-27 04:04:00,
2013-01-26 23:09:00,32.1,21.4,28.14,NE,45,1.2,1.3,63,0.00,,,0.04,WSDL version 420,2013-01-27 04:09:00,
2013-01-26 23:14:00,31.8,21.9,28.14,NNE,17,0.0,1.3,63,0.00,,,0.04,WSDL version 420,2013-01-27 04:14:00,
2013-01-26 23:19:00,31.6,21.8,28.14,NNE,23,0.0,0.0,63,0.00,,,0.04,WSDL version 420,2013-01-27 04:19:00,
2013-01-26 23:24:00,31.6,21.6,28.14,NNE,17,0.0,0.0,62,0.00,,,0.04,WSDL version 420,2013-01-27 04:24:00,
2013-01-26 23:29:00,31.6,21.4,28.14,North,360,0.0,0.0,62,0.00,,,0.04,WSDL version 420,2013-01-27 04:29:00,
2013-01-26 23:34:00,31.6,21.4,28.14,ENE,68,0.4,1.1,62,0.00,,,0.04,WSDL version 420,2013-01-27 04:34:00,
2013-01-26 23:39:00,31.6,21.4,28.14,ENE,60,1.4,2.0,62,0.00,,,0.04,WSDL version 420,2013-01-27 04:39:00,
2013-01-26 23:44:00,31.3,21.1,28.14,ENE,60,0.6,2.0,62,0.00,,,0.04,WSDL version 420,2013-01-27 04:44:00,
2013-01-26 23:49:00,31.2,21.0,28.14,North,11,0.0,2.0,62,0.00,,,0.04,WSDL version 420,2013-01-27 04:49:00,
2013-01-26 23:54:00,31.2,21.0,28.14,NNE,23,0.0,0.0,62,0.00,,,0.04,WSDL version 420,2013-01-27 04:54:00,
2013-01-26 23:59:00,31.3,21.1,28.14,NNE,23,0.4,1.1,62,0.00,,,0.04,WSDL version 420,2013-01-27 04:59:00,